Home   Weather   Amberg   Past weeks

Flag for Germany Past Weather in Amberg, Bavaria, Germany — Yesterday and Last 2 Weeks

48 °F

Mostly cloudy.

Feels Like: 47 °F
Forecast: 42 / 55 °F
Wind: 3 mph from East

Location: Hohenfels

Current Time: Oct 23, 2016 at 6:23:52 PM

Latest Report: Oct 23, 2016 at 5:58 PM

Visibility: N/A

Pressure: 29.94 "Hg

Humidity: 94%

Dew Point: 46 °F

Location of AmbergLocation

Past Weather in Amberg — Graph


Amberg Temperature Yesterday

Maximum temperature yesterday: 45 °F (at 4:01 PM)
Minimum temperature yesterday: 39 °F (at 12:04 AM)
Average temperature yesterday: 41 °F

High & Low Weather Summary for the Past Weeks

High64 °F (Oct 15, 1:58 PM)100% (Oct 9, 2:58 AM)30.30 "Hg (Oct 9, 2:58 AM)
Low32 °F (Oct 10, 3:58 AM)56% (Oct 16, 3:02 PM)29.77 "Hg (Oct 14, 11:58 PM)
Average44 °F92%30.08 "Hg
* Reported Oct 8 4:58 PM — Oct 23 4:58 PM, Amberg, Weather by CustomWeather, © 2016

Note: Actual official high and low records may vary slightly from our data, if they occured in-between our weather recording intervals... More about our weather records


Amberg Weather History for the Previous 24 Hours

Scroll right to see more
Time TempWeatherWind HumidityBarometerVisibility
4:58 PM
Sun, Oct 23
50 °FBroken clouds.2 mph82%29.95 "HgN/A
3:59 PM50 °FPassing clouds.2 mph82%29.91 "HgN/A
2:58 PM50 °FPassing clouds.5 mph76%29.93 "HgN/A
2:02 PM46 °FLight rain. Passing clouds.5 mph87%29.92 "HgN/A
1:58 PM46 °FSunny.6 mph93%29.95 "HgN/A
12:58 PM45 °FBroken clouds.6 mph100%29.98 "HgN/A
11:58 AM43 °FFog.3 mph100%30.00 "Hg6 mi
10:58 AM41 °FFog.6 mph93%30.01 "Hg3 mi
9:58 AM39 °FFog.2 mph100%30.01 "Hg1 mi
8:59 AM39 °FFog.2 mph100%29.97 "Hg0 mi
7:58 AM39 °FChilly.No wind100%30.01 "HgN/A
6:58 AM39 °FFog.2 mph100%30.01 "Hg1 mi
5:58 AM39 °FFog.2 mph100%29.99 "Hg1 mi
5:00 AM41 °FFog.3 mph100%29.96 "Hg2 mi
4:58 AM41 °FFog.5 mph100%29.99 "Hg2 mi
4:01 AM41 °FFog.5 mph100%29.96 "Hg2 mi
2:59 AM41 °FFog.1 mph100%29.97 "Hg1 mi
2:58 AM41 °FFog.1 mph100%30.01 "Hg1 mi
1:58 AM41 °FFog.No wind100%30.02 "Hg3 mi
12:58 AM41 °FFog.No wind100%30.02 "Hg3 mi
11:59 PM
Sat, Oct 22
41 °FFog.No wind100%29.98 "Hg3 mi
10:58 PM41 °FFog.No wind100%30.03 "Hg1 mi
10:04 PM41 °FFog.No wind100%29.98 "Hg2 mi
9:58 PM41 °FFog.1 mph100%30.03 "Hg2 mi
9:04 PM41 °FFog.2 mph100%29.98 "Hg3 mi
8:58 PM41 °FFog.2 mph100%30.03 "Hg2 mi
7:58 PM41 °FFog.No wind100%30.01 "Hg1 mi
6:58 PM43 °FFog.No wind93%30.01 "Hg2 mi
Weather by CustomWeather, © 2016

See weather overviewHow to use our weather pages